When you browse on this site, cookies collect data to enhance your experience and personalize the content and advertising you see.
Visit our Privacy Policy to learn more. By continuing to use the site, you agree to this use of cookies and data.
  • In Portugal
  • List of Countries
  • For 7 days
  • Water Temperature
  • Weather Map
  • Weather Widgets
  • user-avatar
    Login

    Hourly Weather Golden Sands

    Today, 29 May, Friday

    Time Temperature Precipitation Wind Pressure Humidity
    00:00 +12°C° 0 mm 4 mps 760 mmHg 84%
    01:00 +12°C° 0 mm 4 mps 760 mmHg 84%
    02:00 +10°C° 0 mm 5 mps 759 mmHg 84%
    03:00 +10°C° 0 mm 5 mps 759 mmHg 84%
    04:00 +10°C° 0 mm 5 mps 760 mmHg 84%
    05:00 +10°C° 0 mm 5 mps 760 mmHg 84%
    06:00 +13°C° 0 mm 4 mps 760 mmHg 80%
    07:00 +14°C° 0 mm 4 mps 760 mmHg 77%
    08:00 +17°C° 0 mm 3 mps 760 mmHg 72%
    09:00 +18°C° 0.3 mm 3 mps 759 mmHg 69%
    10:00 +19°C° 0.3 mm 3 mps 759 mmHg 66%
    11:00 +20°C° 0.3 mm 3 mps 759 mmHg 62%
    12:00 +20°C° 0.5 mm 3 mps 759 mmHg 63%
    13:00 +20°C° 0.5 mm 4 mps 759 mmHg 64%
    14:00 +20°C° 0 mm 3 mps 759 mmHg 63%
    15:00 +19°C° 0.6 mm 3 mps 759 mmHg 68%
    16:00 +19°C° 0.6 mm 3 mps 759 mmHg 72%
    17:00 +18°C° 0.6 mm 4 mps 759 mmHg 77%
    18:00 +17°C° 0.3 mm 3 mps 759 mmHg 78%
    19:00 +16°C° 0.3 mm 3 mps 759 mmHg 80%
    20:00 +16°C° 0.3 mm 2 mps 759 mmHg 82%
    21:00 +15°C° 0 mm 2 mps 759 mmHg 82%
    22:00 +14°C° 0 mm 3 mps 759 mmHg 82%
    23:00 +13°C° 0 mm 3 mps 759 mmHg 82%

    Tomorrow, 30 May, Saturday

    Time Temperature Precipitation Wind Pressure Humidity
    00:00 +14°C° 0 mm 2 mps 759 mmHg 83%
    01:00 +14°C° 0 mm 2 mps 759 mmHg 83%
    02:00 +14°C° 0 mm 2 mps 759 mmHg 84%
    03:00 +14°C° 0 mm 1 mps 759 mmHg 84%
    04:00 +14°C° 0 mm 1 mps 759 mmHg 83%
    05:00 +14°C° 0 mm 1 mps 759 mmHg 83%
    06:00 +14°C° 0 mm 1 mps 759 mmHg 83%
    07:00 +15°C° 0 mm 2 mps 759 mmHg 83%
    08:00 +16°C° 0 mm 2 mps 759 mmHg 82%
    09:00 +17°C° 0.1 mm 3 mps 759 mmHg 79%
    10:00 +18°C° 0.1 mm 4 mps 759 mmHg 75%
    11:00 +20°C° 0.1 mm 4 mps 759 mmHg 72%
    12:00 +20°C° 0.3 mm 5 mps 759 mmHg 71%
    13:00 +20°C° 0.3 mm 6 mps 759 mmHg 71%
    14:00 +20°C° 0.3 mm 7 mps 759 mmHg 70%
    15:00 +20°C° 0.2 mm 7 mps 758 mmHg 72%
    16:00 +20°C° 0.2 mm 6 mps 758 mmHg 73%
    17:00 +20°C° 0.2 mm 6 mps 758 mmHg 74%
    18:00 +19°C° 0 mm 5 mps 758 mmHg 77%
    19:00 +17°C° 0 mm 5 mps 758 mmHg 80%
    20:00 +17°C° 0 mm 4 mps 758 mmHg 83%
    21:00 +15°C° 0 mm 4 mps 758 mmHg 83%
    22:00 +15°C° 0 mm 4 mps 758 mmHg 83%
    23:00 +14°C° 0 mm 4 mps 759 mmHg 83%

    Day after tomorrow, 31 May, Sunday

    Time Temperature Precipitation Wind Pressure Humidity
    00:00 +14°C° 0 mm 4 mps 758 mmHg 83%
    01:00 +14°C° 0 mm 3 mps 758 mmHg 82%
    02:00 +14°C° 0 mm 3 mps 758 mmHg 81%
    03:00 +14°C° 0 mm 3 mps 758 mmHg 81%
    04:00 +13°C° 0 mm 3 mps 758 mmHg 80%
    05:00 +13°C° 0 mm 3 mps 758 mmHg 79%
    06:00 +16°C° 0 mm 3 mps 758 mmHg 74%
    07:00 +17°C° 0 mm 4 mps 758 mmHg 69%
    08:00 +19°C° 0 mm 4 mps 758 mmHg 64%
    09:00 +20°C° 0 mm 4 mps 758 mmHg 62%
    10:00 +21°C° 0 mm 4 mps 758 mmHg 60%
    11:00 +21°C° 0 mm 4 mps 758 mmHg 58%
    12:00 +22°C° 0.1 mm 4 mps 758 mmHg 60%
    13:00 +22°C° 0.1 mm 5 mps 757 mmHg 62%
    14:00 +22°C° 0.1 mm 5 mps 757 mmHg 64%
    15:00 +21°C° 0.3 mm 5 mps 757 mmHg 70%
    16:00 +19°C° 0.3 mm 5 mps 757 mmHg 76%
    17:00 +17°C° 0.3 mm 5 mps 756 mmHg 82%
    18:00 +17°C° 0 mm 5 mps 756 mmHg 83%
    19:00 +16°C° 0 mm 5 mps 756 mmHg 84%
    20:00 +15°C° 0 mm 5 mps 756 mmHg 85%
    21:00 +15°C° 0 mm 4 mps 756 mmHg 84%
    22:00 +15°C° 0 mm 4 mps 757 mmHg 84%
    23:00 +14°C° 0 mm 4 mps 757 mmHg 84%

    1 June, Monday

    Time Temperature Precipitation Wind Pressure Humidity
    00:00 +14°C° 0.1 mm 4 mps 756 mmHg 83%
    01:00 +14°C° 0.1 mm 4 mps 756 mmHg 82%
    02:00 +13°C° 0.1 mm 3 mps 756 mmHg 81%
    03:00 +13°C° 0 mm 4 mps 756 mmHg 79%
    04:00 +13°C° 0 mm 4 mps 756 mmHg 78%
    05:00 +12°C° 0 mm 5 mps 756 mmHg 77%
    06:00 +13°C° 0 mm 5 mps 756 mmHg 75%
    07:00 +14°C° 0 mm 5 mps 756 mmHg 73%
    08:00 +14°C° 0 mm 5 mps 756 mmHg 71%
    09:00 +15°C° 0 mm 5 mps 756 mmHg 71%
    10:00 +15°C° 0 mm 5 mps 757 mmHg 71%
    11:00 +16°C° 0 mm 5 mps 757 mmHg 71%
    12:00 +16°C° 0 mm 5 mps 756 mmHg 73%
    13:00 +15°C° 0 mm 5 mps 756 mmHg 75%
    14:00 +15°C° 0 mm 4 mps 756 mmHg 77%
    15:00 +16°C° 0 mm 5 mps 755 mmHg 76%
    16:00 +16°C° 0 mm 5 mps 755 mmHg 75%
    17:00 +17°C° 0 mm 6 mps 755 mmHg 74%
    18:00 +16°C° 0.1 mm 6 mps 755 mmHg 78%
    19:00 +15°C° 0.1 mm 6 mps 755 mmHg 82%
    20:00 +14°C° 0.1 mm 6 mps 755 mmHg 86%
    21:00 +14°C° 0.2 mm 6 mps 755 mmHg 88%
    22:00 +13°C° 0.2 mm 5 mps 755 mmHg 91%
    23:00 +12°C° 0.2 mm 5 mps 755 mmHg 93%

    2 June, Tuesday

    Time Temperature Precipitation Wind Pressure Humidity
    00:00 +11°C° 0.1 mm 6 mps 755 mmHg 93%
    01:00 +11°C° 0.1 mm 6 mps 755 mmHg 92%
    02:00 +11°C° 0.1 mm 7 mps 755 mmHg 92%
    03:00 +11°C° 0 mm 7 mps 755 mmHg 91%
    04:00 +10°C° 0 mm 7 mps 755 mmHg 90%
    05:00 +10°C° 0 mm 8 mps 755 mmHg 90%
    06:00 +11°C° 0 mm 8 mps 756 mmHg 84%
    07:00 +12°C° 0 mm 7 mps 756 mmHg 78%
    08:00 +12°C° 0 mm 7 mps 756 mmHg 72%
    09:00 +15°C° 0 mm 6 mps 757 mmHg 66%
    10:00 +16°C° 0 mm 5 mps 757 mmHg 60%
    11:00 +18°C° 0 mm 4 mps 757 mmHg 53%
    12:00 +18°C° 0 mm 4 mps 757 mmHg 52%
    13:00 +19°C° 0 mm 3 mps 757 mmHg 51%
    14:00 +19°C° 0 mm 3 mps 757 mmHg 49%
    15:00 +18°C° 0 mm 3 mps 757 mmHg 55%
    16:00 +17°C° 0 mm 2 mps 757 mmHg 60%
    17:00 +16°C° 0 mm 2 mps 757 mmHg 66%
    18:00 +16°C° 0 mm 2 mps 757 mmHg 67%
    19:00 +14°C° 0 mm 3 mps 757 mmHg 68%
    20:00 +14°C° 0 mm 3 mps 757 mmHg 70%
    21:00 +14°C° 0 mm 3 mps 757 mmHg 71%
    22:00 +14°C° 0 mm 3 mps 757 mmHg 73%
    23:00 +14°C° 0 mm 4 mps 757 mmHg 74%

    3 June, Wednesday

    Time Temperature Precipitation Wind Pressure Humidity
    00:00 +13°C° 0 mm 4 mps 757 mmHg 77%
    01:00 +13°C° 0 mm 4 mps 756 mmHg 79%
    02:00 +12°C° 0 mm 3 mps 756 mmHg 82%
    03:00 +12°C° 0 mm 4 mps 756 mmHg 83%
    04:00 +12°C° 0 mm 4 mps 756 mmHg 85%
    05:00 +11°C° 0 mm 4 mps 756 mmHg 86%
    06:00 +12°C° 0.1 mm 4 mps 756 mmHg 80%
    07:00 +14°C° 0.1 mm 4 mps 756 mmHg 74%
    08:00 +15°C° 0.1 mm 4 mps 756 mmHg 67%
    09:00 +17°C° 0 mm 4 mps 756 mmHg 64%
    10:00 +18°C° 0 mm 4 mps 756 mmHg 61%
    11:00 +19°C° 0 mm 5 mps 756 mmHg 58%
    12:00 +19°C° 0.1 mm 5 mps 756 mmHg 60%
    13:00 +19°C° 0.1 mm 5 mps 756 mmHg 62%
    14:00 +19°C° 0.1 mm 6 mps 756 mmHg 64%
    15:00 +19°C° 0.2 mm 6 mps 755 mmHg 65%
    16:00 +17°C° 0.2 mm 6 mps 755 mmHg 66%
    17:00 +17°C° 0.2 mm 5 mps 755 mmHg 67%
    18:00 +16°C° 0.1 mm 5 mps 756 mmHg 72%
    19:00 +15°C° 0.1 mm 5 mps 756 mmHg 77%
    20:00 +14°C° 0.1 mm 5 mps 756 mmHg 82%
    21:00 +13°C° 0 mm 5 mps 756 mmHg 83%
    22:00 +13°C° 0 mm 5 mps 757 mmHg 84%
    23:00 +12°C° 0 mm 5 mps 757 mmHg 85%
    Show more